Date,TemperatureHighF,TemperatureAvgF,TemperatureLowF,DewpointHighF,DewpointAvgF,DewpointLowF,HumidityHigh,HumidityAvg,HumidityLow,PressureMaxIn,PressureMinIn,WindSpeedMaxMPH,WindSpeedAvgMPH,GustSpeedMaxMPH,PrecipitationSumIn
2013-7-1,79.2,68.3,56.2,54.9,50.0,44.8,80,55,31,30.03,29.95,6,2,20,0.00
2013-7-2,75.3,64.6,54.7,52.5,47.9,38.6,89,57,28,30.03,29.98,5,1,14,0.00
2013-7-3,70.4,65.1,59.9,63.3,58.0,46.7,92,78,61,30.00,29.93,3,0,12,0.03
2013-7-4,82.6,72.3,61.0,63.7,58.8,51.6,97,67,35,29.99,29.91,3,0,12,0.01
2013-7-5,84.7,74.5,61.5,65.1,61.5,59.1,93,66,44,29.97,29.89,6,1,15,0.01
2013-7-6,85.9,73.8,61.8,66.2,61.8,58.4,95,69,40,29.94,29.84,3,0,12,0.00
2013-7-7,87.0,77.2,66.4,71.2,66.9,61.3,95,72,51,29.88,29.80,4,1,14,0.00
2013-7-8,87.6,77.8,71.6,73.4,70.2,67.8,94,78,58,29.87,29.78,7,2,15,0.03
2013-7-9,84.1,75.1,68.4,74.3,70.6,66.5,96,86,68,29.89,29.71,5,1,16,0.24
2013-7-10,78.5,73.1,64.7,72.2,61.1,52.1,96,68,42,29.92,29.73,9,4,20,0.24
2013-7-11,80.9,68.9,56.5,60.0,55.0,48.0,96,65,35,30.03,29.93,3,0,10,0.00
2013-7-12,83.2,69.8,55.0,58.3,52.5,41.5,94,59,24,30.08,29.98,3,0,10,0.00
2013-7-13,83.4,71.5,57.8,62.2,56.9,54.1,90,63,39,30.07,29.99,4,1,12,0.00
2013-7-14,86.3,76.1,63.2,68.0,63.4,57.3,87,66,48,30.12,30.05,3,0,14,0.00
2013-7-15,91.2,78.7,66.8,75.4,69.1,64.4,94,74,48,30.17,30.11,3,0,12,0.01
2013-7-16,92.5,84.7,73.2,75.0,73.1,71.6,96,70,51,30.17,30.11,2,1,13,0.00
2013-7-17,94.0,83.0,73.7,74.4,72.1,69.5,95,72,46,30.18,30.05,5,1,12,0.00
2013-7-18,92.7,83.5,72.7,74.0,71.7,69.3,96,70,48,30.06,29.78,6,2,23,0.00
2013-7-19,90.7,82.5,73.3,73.0,68.9,60.6,83,65,48,29.78,29.61,6,2,19,0.00
2013-7-20,84.5,71.7,62.1,66.2,60.8,55.7,91,70,40,29.88,29.72,6,1,13,0.04
2013-7-21,80.5,67.0,59.9,69.2,59.5,54.3,96,78,54,29.89,29.77,12,0,30,1.15
2013-7-22,84.7,74.7,61.2,70.2,65.7,60.1,98,76,51,29.80,29.53,6,1,15,0.04
2013-7-23,73.9,68.3,58.7,63.9,56.3,50.4,89,67,49,29.91,29.60,8,3,19,0.04
2013-7-24,74.2,63.0,52.8,54.0,50.8,46.0,94,68,40,30.00,29.92,3,0,9,0.00
2013-7-25,78.5,66.9,52.9,63.9,57.5,50.7,95,74,53,29.99,29.87,5,1,13,0.02
2013-7-26,73.3,66.2,60.7,68.0,61.6,54.8,96,86,59,29.87,29.75,5,1,13,0.45
2013-7-27,60.7,55.8,51.3,56.4,48.1,43.5,92,76,58,29.87,29.79,8,3,19,0.46
2013-7-28,67.4,58.1,50.1,53.3,50.0,46.4,94,76,55,29.91,29.76,8,3,20,0.01
2013-7-29,73.2,62.5,52.6,57.9,53.5,49.8,92,73,53,30.09,29.91,4,0,10,0.00
2013-7-30,74.6,65.2,56.2,62.7,58.8,54.5,95,81,58,30.10,30.00,1,0,10,0.00
2013-7-31,78.5,66.9,59.6,67.4,62.1,57.5,97,86,61,30.00,29.86,6,0,20,0.15